Regional Weather Roundup
Issued by NWS

Home | Current Version | Previous Version | Graphics & Text | Print | Product List | Glossary On
Versions: 1 2 3 4 5 6 7 8 9 10 11 12 13 14 15 16 17 18 19 20 21 22 23 24 25 26 27 28 29 30 31 32 33 34 35 36 37 38 39 40 41 42 43 44 45 46 47 48 49 50
000
ASUS43 KLOT 011806
RWRIL

ILLINOIS REGIONAL WEATHER ROUNDUP
NATIONAL WEATHER SERVICE CHICAGO/ROMEOVILLE IL
100 PM CDT MON SEP 01 2014

NOTE: "FAIR" INDICATES FEW OR NO CLOUDS BELOW 12,000 FEET WITH NO
SIGNIFICANT WEATHER AND/OR OBSTRUCTIONS TO VISIBILITY.

* THESE STATIONS ARE NOT UNDER NWS QUALITY CONTROL. THEY ALSO MAY NOT
  REPORT WEATHER SUCH AS PRECIPITATION OR FOG.

ILZ001-002-007-009-015-016-024-011900-
NORTHWEST ILLINOIS

CITY           SKY/WX    TMP DP  RH WIND       PRES   REMARKS
MOLINE         SUNNY     80  64  58 W15G25    29.78S HX  82
6HR MIN TEMP:  67; 6HR MAX TEMP:  81;

STERLING*      CLOUDY    81  66  61 W14       29.78F HX  83
SAVANNA*       MOSUNNY   79  65  61 W9        29.76S HX  81
$$

ILZ003-004-008-010-011-017-018-011900-
NORTH CENTRAL ILLINOIS

CITY           SKY/WX    TMP DP  RH WIND       PRES   REMARKS
ROCKFORD       PTSUNNY   78  64  61 W15       29.78S HX  80
6HR MIN TEMP:  71; 6HR MAX TEMP:  79; 6HR PCP: TRACE;

FREEPORT*      PTSUNNY   78  69  73 SW14G20   29.78S HX  80
ROCHELLE*      MOSUNNY   80  65  59 W18G24    29.79S HX  81
DE KALB*       MOSUNNY   76  65  69 SW14      29.79F
PERU*          MOSUNNY   80  67  63 SW8       29.81S HX  82
$$

ILZ005-006-012>014-019>023-011900-
NORTHEAST ILLINOIS

CITY           SKY/WX    TMP DP  RH WIND       PRES   REMARKS
CHICAGO-OHARE  PTSUNNY   79  65  62 SW14G22   29.77S HX  81
6HR MIN TEMP:  74; 6HR MAX TEMP:  80; 6HR PCP:  0.09;

CHICAGO-MIDWAY PTSUNNY   81  70  69 W16G23    29.78S HX  84
6HR MIN TEMP:  76; 6HR MAX TEMP:  81; 6HR PCP: TRACE;

AURORA         MOSUNNY   79  65  62 W12G22    29.79F HX  81
6HR MIN TEMP:  74; 6HR MAX TEMP:  80; 6HR PCP: TRACE;

LANSING*         N/A    N/A N/A N/A MISG        N/A
JOLIET*        PTSUNNY   80  66  61 SW12G18   29.81S HX  82
WAUKEGAN       CLOUDY    78  67  68 SW9G20    29.74F HX  80
6HR MIN TEMP:  72; 6HR MAX TEMP:  79; 6HR PCP:  0.10;

DUPAGE AIRPORT MOSUNNY   80  66  62 SW15G23   29.78S HX  82
6HR MIN TEMP:  73; 6HR MAX TEMP:  81; 6HR PCP:  0.01;

KANKAKEE*      PTSUNNY   81  70  70 SW13G21   29.81S HX  84
WHEELING       CLOUDY    81  68  64 W13G21    29.77S HX  84
6HR MIN TEMP:  75; 6HR MAX TEMP:  81; 6HR PCP:  0.04;

MORRIS*        MOSUNNY   81  67  63 W16       29.81R HX  83
ROMEOVILLE*    CLOUDY    78  67  69 W9G18     29.80S HX  81
NORTHERLY ISL    N/A     78  66  66 W10         N/A  HX  80
$$

LMZ740>746-011900-
SOUTHERN LAKE MICHIGAN

STATION/POSITION SKY/WX   TEMP    WIND        PRES    VSBY  WAVE
                          AIR SEA DIR/SP/G                  HT/PER
                          (F)     (DEG/KT/KT) (MB)    (MI)  (FT/S)
SOUTHERN BUOY              71 69  220/  8/  8 1006.9F         3/ 5
WAUKEGAN HARBOR            77     250/ 11/ 21   N/A
HARRISON CRIB              77     240/ 17/ 21   N/A
BURNHAM HARBOR             79     270/  8/ 15   N/A
CALUMET HARBOR             80     210/ 10/ 16 1007.1F
MICHIGAN CITY              75     190/ 13/ 16   N/A
MICHIGAN CITY 6N           74 72  220/ 10/ 14   N/A           3/ 3
ST. JOSEPH                 72 72  200/ 16/ 21   N/A           4/ 4
$$

ILZ025>027-034>036-040-047-049-050-058-095>099-011900-
WEST-CENTRAL ILLINOIS

CITY           SKY/WX    TMP DP  RH WIND       PRES   REMARKS
QUINCY         PTSUNNY   76  64  66 W17G24    29.87S
GALESBURG*     PTSUNNY   79  68  68 SW8       29.83S HX  82
MACOMB*        CLOUDY    76  66  71 W12G17    29.87S
JACKSONVILLE*  CLOUDY    80  66  61 W18G24    29.89R HX  82
PITTSFIELD*    CLOUDY    78  64  60 W13G21    29.90S HX  80
$$

ILZ028>032-037-038-041>044-048-051>054-059>061-011900-
CENTRAL ILLINOIS

CITY           SKY/WX    TMP DP  RH WIND       PRES   REMARKS
PONTIAC        MOSUNNY   82  70  65 W10       29.81S HX  86
DECATUR        CLOUDY    82  66  58 W16G26    29.86R HX  84
PEORIA         PTSUNNY   81  66  60 W9        29.83S HX  83
6HR MIN TEMP:  74; 6HR MAX TEMP:  81;

LACON*         MOSUNNY   79  64  61 W9G16     29.82R HX  80
LINCOLN*       PTSUNNY   80  64  56 SW8       29.82R HX  82
SPRINGFIELD    CLOUDY    82  66  58 W14G22    29.85S HX  84
6HR MIN TEMP:  74; 6HR MAX TEMP:  82;

TAYLORVILLE    CLOUDY    79  64  61 W15       29.87S HX  81
$$

ILZ033-039-045-046-055>057-062-063-011900-
EAST-CENTRAL ILLINOIS

CITY           SKY/WX    TMP DP  RH WIND       PRES   REMARKS
CHAMPAIGN      PTSUNNY   82  70  66 SW15      29.85R HX  86
DANVILLE*      CLOUDY    79  72  78 SW21      29.82S HX  82
MATTOON        CLOUDY    80  71  74 SW16G26   29.87R HX  84
PARIS*         CLOUDY    82  74  74 SW18G25   29.87R HX  88
$$

ILZ079-100>102-011900-
SOUTHWEST ILLINOIS

CITY           SKY/WX    TMP DP  RH WIND       PRES   REMARKS
ALTON          PTSUNNY   81  64  57 W14       29.90R HX  82
BELLEVILLE     CLOUDY    80  67  65 VRB7      29.90R HX  82
CAHOKIA*       CLOUDY    80  65  59 VRB6      29.90R HX  82
SPARTA*        CLOUDY    81  67  63 SW10      29.89S HX  83
$$

ILZ064>066-069>071-074>076-080>082-084>086-088>090-092>094-011900-
SOUTH-CENTRAL ILLINOIS

CITY           SKY/WX    TMP DP  RH WIND       PRES   REMARKS
CARBONDALE     CLOUDY    82  71  69 S17G23    29.88F HX  86
6HR MIN TEMP:  75; 6HR MAX TEMP:  82;

CAIRO*         MOSUNNY   86  73  63 SW16G23   29.95F HX  93
EFFINGHAM*     CLOUDY    82  69  63 SW14      29.88S HX  86
MARION         CLOUDY    81  73  78 MISG      29.87F HX  85
MT. VERNON     CLOUDY    82  72  69 SW17G23   29.90R HX  87
CENTRALIA*     PTSUNNY   81  66  61 SW13      29.89R HX  83
SALEM*         PTSUNNY   83  72  69 SW16      29.90R HX  88
METROPOLIS*    CLOUDY    85  74  68 SW16G23   29.95F HX  93
$$

ILZ067-068-072-073-078-083-087-091-011900-
SOUTHEAST ILLINOIS

CITY           SKY/WX    TMP DP  RH WIND       PRES   REMARKS
LAWRENCEVILLE  CLOUDY    82  73  74 SW20G26   29.89R HX  87
FLORA*         CLOUDY    83  71  67 SW14G24   29.89R HX  87
FAIRFIELD*     CLOUDY    84  75  74 S15G22    29.89R HX  92
HARRISBURG*    CLOUDY    80  72  76 SW16G24   29.92S HX  85
ROBINSON*      CLOUDY    82  74  76 S14G22    29.89S HX  89
CARMI*         CLOUDY    82  74  74 S14G22    29.90R HX  88
$$

ABBREVIATIONS USED IN REMARKS
   TC - TEMPERATURE IN CELSIUS
  WCI - WIND CHILL INDEX
   HX - HEAT INDEX
  VSB - VISIBILITY
$$



USA.gov is the U.S. government's official web portal to all federal, state and local government web resources and services.